This is the latest recevied weather packets stored in our database for station/object KC8BSD. If no packets are shown the sender has not sent any weather packets the latest 10 day(s).
| Time | Temp. | Humidity | Pressure | Rain* | Wind** | Luminosity | Snow |
|---|---|---|---|---|---|---|---|
| 1777493245 | 11.11° C | 78% | 1012.4 hPa | 0 mm | - | 60 W/m² | - |
| 1777492942 | 11.11° C | 77% | 1012.3 hPa | 0 mm | - | 38 W/m² | - |
| 1777492639 | 11.11° C | 76% | 1012.1 hPa | 0 mm | - | 31 W/m² | - |
| 1777492333 | 11.11° C | 76% | 1012.2 hPa | 0 mm | - | 49 W/m² | - |
| 1777492030 | 11.67° C | 77% | 1012.3 hPa | 0 mm | - | 90 W/m² | - |
| 1777491727 | 11.11° C | 77% | 1012.3 hPa | 0 mm | - | 101 W/m² | - |
| 1777491424 | 11.11° C | 76% | 1012.3 hPa | 0 mm | - | 96 W/m² | - |
| 1777491121 | 11.11° C | 76% | 1012.3 hPa | 0 mm | - | 120 W/m² | - |
| 1777490817 | 11.11° C | 75% | 1012.3 hPa | 0 mm | - | 96 W/m² | - |
| 1777490513 | 11.11° C | 77% | 1012.5 hPa | 0 mm | - | 108 W/m² | - |
| 1777490210 | 11.11° C | 77% | 1012.3 hPa | 0 mm | - | 83 W/m² | - |
| 1777489907 | 11.11° C | 76% | 1012.2 hPa | 0 mm | - | 98 W/m² | - |
| 1777489605 | 11.67° C | 78% | 1012.1 hPa | 0 mm | - | 119 W/m² | - |
| 1777489301 | 11.11° C | 76% | 1012.3 hPa | 0 mm | - | 134 W/m² | - |
| 1777488998 | 11.11° C | 77% | 1012.3 hPa | 0 mm | - | 96 W/m² | - |
| 1777488695 | 11.11° C | 77% | 1012.4 hPa | 0 mm | - | 72 W/m² | - |
| 1777488393 | 11.11° C | 78% | 1012.3 hPa | 0 mm | - | 90 W/m² | - |
| 1777488091 | 11.11° C | 77% | 1012.5 hPa | 0 mm | - | 104 W/m² | - |
| 1777487789 | 11.11° C | 78% | 1012.3 hPa | 0 mm | - | 78 W/m² | - |
| 1777487487 | 11.67° C | 78% | 1012.4 hPa | 0 mm | - | 69 W/m² | - |
| 1777487184 | 11.11° C | 77% | 1012.4 hPa | 0 mm | - | 77 W/m² | - |
| 1777486879 | 11.11° C | 76% | 1012.3 hPa | 0 mm | - | 84 W/m² | - |
| 1777486576 | 11.67° C | 78% | 1012.5 hPa | 0 mm | - | 116 W/m² | - |
| 1777486274 | 11.11° C | 77% | 1012.4 hPa | 0 mm | - | 104 W/m² | - |
| 1777485972 | 11.11° C | 78% | 1012.3 hPa | 0 mm | - | 99 W/m² | - |
* Rain latest hour (hover to see other rain measurements)
** Current wind speed in m/s (hover to see current wind gust speed)